GW3053 Weather Reports


time (UTC)temp
F
wind
direction
speed
knots
gust
knots
rain 1hr
in
rain 24hr
in
rain mn
in
humidity
%
barometer
mb
20260506124541 44 0 0.0 0.0 0.00 0.00 0.00 91 1018.8
20260506124026 44 0 0.0 0.0 0.00 0.00 0.00 91 1018.9
20260506123525 44 0 0.0 0.0 0.00 0.00 0.00 91 1018.9
20260506123041 44 0 0.0 0.0 0.00 0.00 0.00 91 1018.9
20260506122526 44 0 0.0 0.0 0.00 0.00 0.00 91 1018.8
20260506122023 44 0 0.0 0.0 0.00 0.00 0.00 90 1018.8
20260506121540 44 0 0.0 0.0 0.00 0.00 0.00 90 1018.6
20260506121028 44 0 0.0 0.0 0.00 0.00 0.00 90 1018.6
20260506120527 44 0 0.0 0.0 0.00 0.00 0.00 90 1018.6
20260506120040 44 0 0.0 0.0 0.00 0.00 0.00 90 1018.6
20260506115524 44 0 0.0 0.0 0.00 0.00 0.00 90 1018.5
20260506115023 44 0 0.0 0.0 0.00 0.00 0.00 90 1018.5
20260506114540 44 0 0.0 0.0 0.00 0.00 0.00 90 1018.5
20260506114030 44 0 0.0 0.0 0.00 0.00 0.00 90 1018.5
20260506113527 44 0 0.0 0.0 0.00 0.00 0.00 90 1018.5
20260506113047 44 0 0.0 1.7 0.00 0.00 0.00 90 1018.5
20260506112524 44 0 0.0 1.7 0.00 0.00 0.00 90 1018.5
20260506112028 44 114 0.0 1.7 0.00 0.00 0.00 90 1018.6
20260506111539 44 0 0.0 0.9 0.00 0.00 0.00 90 1018.6
20260506111025 44 0 0.0 0.0 0.00 0.00 0.00 90 1018.5
20260506110526 44 0 0.0 0.9 0.00 0.00 0.00 90 1018.6
20260506110039 44 0 0.0 0.9 0.00 0.00 0.00 90 1018.6
20260506105525 44 0 0.0 0.9 0.00 0.00 0.00 90 1018.5
20260506105026 44 0 0.0 0.9 0.00 0.00 0.00 89 1018.5
20260506104545 45 0 0.0 0.9 0.00 0.00 0.00 90 1018.5
20260506104024 44 0 0.0 0.9 0.00 0.00 0.00 90 1018.5
20260506103524 44 0 0.0 0.0 0.00 0.00 0.00 90 1018.5
20260506103041 45 0 0.0 1.7 0.00 0.00 0.00 89 1018.5
20260506102523 45 0 0.0 1.7 0.00 0.00 0.00 89 1018.6
20260506102028 45 0 0.0 0.0 0.00 0.00 0.00 89 1018.6
20260506101548 45 0 0.0 0.0 0.00 0.00 0.00 89 1018.6
20260506101026 45 0 0.0 0.0 0.00 0.00 0.00 89 1018.6
20260506100526 45 0 0.0 0.0 0.00 0.00 0.00 89 1018.6
20260506100040 45 0 0.0 0.0 0.00 0.00 0.00 89 1018.5
20260506095526 45 0 0.0 0.0 0.00 0.00 0.00 89 1018.5
20260506095027 45 0 0.0 0.0 0.00 0.00 0.00 89 1018.6
20260506094540 46 0 0.0 0.0 0.00 0.00 0.00 89 1018.5
20260506094026 46 0 0.0 0.0 0.00 0.00 0.00 89 1018.5
20260506093526 45 0 0.0 0.0 0.00 0.00 0.00 89 1018.5
20260506093038 45 0 0.0 0.0 0.00 0.00 0.00 89 1018.5
20260506092528 46 0 0.0 1.7 0.00 0.00 0.00 89 1018.5
20260506092026 46 0 0.0 2.6 0.00 0.00 0.00 89 1018.4
20260506091538 46 0 0.0 2.6 0.00 0.00 0.00 89 1018.3
20260506091026 46 104 0.9 2.6 0.00 0.00 0.00 89 1018.4
20260506090529 46 0 0.0 2.6 0.00 0.00 0.00 89 1018.4
20260506090037 46 0 0.0 1.7 0.00 0.00 0.00 89 1018.3
20260506085526 46 91 0.0 0.0 0.00 0.00 0.00 89 1018.3
20260506085027 46 0 0.0 0.0 0.00 0.00 0.00 89 1018.2
20260506084543 46 0 0.0 0.9 0.00 0.00 0.00 89 1018.4
20260506084026 46 0 0.0 0.9 0.00 0.00 0.00 89 1018.3
20260506083525 46 109 0.0 0.9 0.00 0.00 0.00 89 1018.3
20260506083041 46 0 0.0 1.7 0.00 0.00 0.00 89 1018.4
20260506082525 46 0 0.0 1.7 0.00 0.00 0.00 89 1018.4
20260506082026 46 117 0.0 1.7 0.00 0.00 0.00 89 1018.3
20260506081538 46 0 0.0 0.0 0.00 0.00 0.00 89 1018.3
20260506081030 47 0 0.0 0.0 0.00 0.00 0.00 89 1018.3
20260506080528 47 0 0.0 0.0 0.00 0.00 0.00 88 1018.3
20260506073526 47 0 0.0 0.0 0.00 0.00 0.00 88 1018.1
20260506073039 47 0 0.0 0.0 0.00 0.00 0.00 88 1018.1
20260506072525 48 0 0.0 0.0 0.00 0.00 0.00 88 1018.1
20260506072026 48 0 0.0 0.0 0.00 0.00 0.00 88 1018.1
20260506071542 48 0 0.0 0.0 0.00 0.00 0.00 88 1018.1
20260506071028 48 0 0.0 0.0 0.00 0.00 0.00 88 1017.9
20260506070526 48 0 0.0 0.0 0.00 0.00 0.00 88 1017.8
20260506062025 49 0 0.0 0.0 0.00 0.00 0.00 86 1017.3
20260506061538 50 0 0.0 0.0 0.00 0.00 0.00 86 1017.3
20260506061026 50 0 0.0 0.0 0.00 0.00 0.00 86 1017.3
20260506060526 50 0 0.0 0.0 0.00 0.00 0.00 86 1017.3
20260506051024 51 0 0.0 0.0 0.00 0.00 0.00 85 1017.0
20260506050528 51 0 0.0 0.0 0.00 0.00 0.00 85 1017.0
20260506045026 51 0 0.0 1.7 0.00 0.00 0.00 83 1016.8
20260506044539 51 0 0.0 1.7 0.00 0.00 0.00 83 1016.8
20260506044025 52 0 0.0 1.7 0.00 0.00 0.00 81 1016.7
20260506043528 52 0 0.0 2.6 0.00 0.00 0.00 83 1016.5
20260506043038 52 0 0.0 2.6 0.00 0.00 0.00 83 1016.6
20260506042526 52 117 0.9 2.6 0.00 0.00 0.00 83 1016.4
20260506042025 52 126 0.0 1.7 0.00 0.00 0.00 83 1016.4
20260506041542 52 0 0.0 0.9 0.00 0.00 0.00 82 1016.3
20260506041025 53 0 0.0 1.7 0.00 0.00 0.00 81 1016.2
20260506040526 53 0 0.0 2.6 0.00 0.00 0.00 80 1016.2
20260506040042 54 114 0.9 2.6 0.00 0.00 0.00 79 1016.1
20260506035525 54 126 0.9 2.6 0.00 0.00 0.00 79 1016.0
20260506035026 54 109 0.9 2.6 0.00 0.00 0.00 78 1016.0
20260506034538 54 105 0.0 1.7 0.00 0.00 0.00 77 1015.9
20260506034026 55 0 0.0 0.0 0.00 0.00 0.00 76 1015.8
20260506033524 56 0 0.0 0.0 0.00 0.00 0.00 75 1015.7
20260506033041 57 0 0.0 0.0 0.00 0.00 0.00 73 1015.7
20260506032525 57 0 0.0 1.7 0.00 0.00 0.00 73 1015.7
20260506032024 57 0 0.0 1.7 0.00 0.00 0.00 73 1015.6
20260506031538 57 0 0.0 1.7 0.00 0.00 0.00 72 1015.4
20260506031024 57 0 0.0 3.5 0.00 0.00 0.00 72 1015.3
20260506030525 58 121 0.0 3.5 0.00 0.00 0.00 71 1015.2
20260506030037 58 175 0.0 4.3 0.00 0.00 0.00 71 1015.0
20260506025524 58 0 0.9 4.3 0.00 0.00 0.00 71 1014.9
20260506025027 58 215 0.9 5.2 0.00 0.00 0.00 70 1014.9
20260506024542 58 180 1.7 5.2 0.00 0.00 0.00 70 1014.9
20260506024027 59 236 0.9 3.5 0.00 0.00 0.00 69 1014.7
20260506023524 59 0 0.9 7.0 0.00 0.00 0.00 69 1014.7
20260506023051 59 0 0.9 7.0 0.00 0.00 0.00 69 1014.7
20260506022524 59 215 1.7 7.0 0.00 0.00 0.00 68 1014.7
20260506022024 59 240 2.6 5.2 0.00 0.00 0.00 68 1014.6
20260506021543 59 213 1.7 7.0 0.00 0.00 0.00 68 1014.6
20260506021028 59 180 1.7 7.0 0.00 0.00 0.00 68 1014.6
20260506020526 60 230 2.6 7.8 0.00 0.00 0.00 68 1014.5
20260506020039 60 212 3.5 7.8 0.00 0.00 0.00 66 1014.5
20260506015525 60 242 1.7 10.4 0.00 0.00 0.00 66 1014.4
20260506015029 60 244 5.2 10.4 0.00 0.00 0.00 65 1014.4
20260506014540 60 246 5.2 10.4 0.00 0.00 0.00 64 1014.5
20260506014024 61 222 4.3 10.4 0.00 0.00 0.00 64 1014.4
20260506013524 61 257 4.3 10.4 0.00 0.00 0.00 63 1014.5
20260506013037 61 232 6.1 9.6 0.00 0.00 0.00 65 1014.4
20260506012524 61 267 5.2 9.6 0.00 0.00 0.00 64 1014.5
20260506012025 61 246 4.3 10.4 0.00 0.00 0.00 64 1014.5
20260506011540 61 220 4.3 12.2 0.00 0.00 0.00 65 1014.6
20260506011025 61 252 5.2 12.2 0.00 0.00 0.00 64 1014.6
20260506010526 61 279 5.2 9.6 0.00 0.00 0.00 63 1014.5
20260506010049 61 267 3.5 10.4 0.00 0.00 0.00 63 1014.5
20260506005524 61 221 5.2 10.4 0.00 0.00 0.00 62 1014.6
20260506005024 62 229 5.2 11.3 0.00 0.00 0.00 62 1014.6
20260506004543 62 221 4.3 11.3 0.00 0.00 0.00 62 1014.5
20260506004025 62 215 6.1 11.3 0.00 0.00 0.00 62 1014.4
20260506003525 62 259 7.0 12.2 0.00 0.00 0.00 61 1014.5
20260506003038 62 242 5.2 12.2 0.00 0.00 0.00 61 1014.5
20260506002523 62 201 7.0 11.3 0.00 0.00 0.00 62 1014.4
20260506002024 63 244 5.2 11.3 0.00 0.00 0.00 60 1014.4
20260506001544 63 243 6.1 11.3 0.00 0.00 0.00 61 1014.5
20260506001024 63 273 6.1 13.0 0.00 0.00 0.00 61 1014.4
20260506000524 63 237 7.8 13.0 0.00 0.00 0.00 61 1014.6
20260506000037 64 192 6.1 11.3 0.00 0.00 0.00 60 1014.5
20260505235526 64 228 7.8 11.3 0.00 0.00 0.00 60 1014.4
20260505235027 64 238 7.0 10.4 0.00 0.00 0.00 59 1014.4
20260505234601 65 227 6.1 9.6 0.00 0.00 0.00 59 1014.4
20260505234026 65 286 4.3 9.6 0.00 0.00 0.00 59 1014.4
20260505233525 65 203 5.2 8.7 0.00 0.00 0.00 58 1014.4
20260505233042 65 188 5.2 10.4 0.00 0.00 0.00 59 1014.4
20260505232526 65 207 6.1 10.4 0.00 0.00 0.00 58 1014.5
20260505232026 65 208 5.2 9.6 0.00 0.00 0.00 58 1014.5
20260505231539 66 196 3.5 9.6 0.00 0.00 0.00 56 1014.6
20260505231024 66 252 6.1 9.6 0.00 0.00 0.00 54 1014.4
20260505230526 66 253 5.2 9.6 0.00 0.00 0.00 57 1014.4
20260505230038 65 243 6.1 13.0 0.00 0.00 0.00 57 1014.5
20260505225525 65 231 4.3 13.0 0.00 0.00 0.00 57 1014.5
20260505225025 65 225 7.0 12.2 0.00 0.00 0.00 56 1014.6
20260505224539 65 306 3.5 8.7 0.00 0.00 0.00 56 1014.6
20260505224025 66 275 2.6 9.6 0.00 0.00 0.00 57 1014.6
20260505223528 65 294 2.6 9.6 0.00 0.00 0.00 56 1014.7
20260505223040 66 239 5.2 9.6 0.00 0.00 0.00 56 1014.6
20260505222526 66 216 2.6 9.6 0.00 0.00 0.00 57 1014.7
20260505222026 66 246 4.3 7.8 0.00 0.00 0.00 56 1014.8
20260505221542 65 252 4.3 7.8 0.00 0.00 0.00 57 1014.7
20260505221029 64 251 1.7 8.7 0.00 0.00 0.00 59 1014.7
20260505220523 64 227 4.3 8.7 0.00 0.00 0.00 59 1014.9
20260505220042 64 236 4.3 9.6 0.00 0.00 0.00 59 1014.9
20260505215525 64 216 6.1 9.6 0.00 0.00 0.00 59 1014.9
20260505215024 65 213 4.3 8.7 0.00 0.00 0.00 58 1015.0
20260505214559 64 250 4.3 9.6 0.00 0.00 0.00 58 1015.1
20260505214025 65 211 5.2 9.6 0.00 0.00 0.00 57 1015.2
20260505213524 64 227 5.2 9.6 0.00 0.00 0.00 59 1015.2
20260505213042 64 256 6.1 11.3 0.00 0.00 0.00 58 1015.2
20260505212526 64 186 7.0 11.3 0.00 0.00 0.00 59 1015.3
20260505212024 63 248 4.3 11.3 0.00 0.00 0.00 59 1015.3
20260505211539 64 275 2.6 7.8 0.00 0.00 0.00 58 1015.3
20260505211028 64 248 3.5 8.7 0.00 0.00 0.00 59 1015.3
20260505210526 64 259 5.2 8.7 0.00 0.00 0.00 59 1015.2
20260505210040 64 293 3.5 8.7 0.00 0.00 0.00 60 1015.2
20260505205526 64 227 2.6 7.8 0.00 0.00 0.00 60 1015.2
20260505205025 64 224 2.6 7.8 0.00 0.00 0.00 59 1015.1
20260505204548 65 262 1.7 7.0 0.00 0.00 0.00 57 1015.2
20260505204024 64 233 2.6 6.1 0.00 0.00 0.00 58 1015.1
20260505203524 64 253 1.7 7.0 0.00 0.00 0.00 59 1015.1
20260505203046 64 259 0.9 9.6 0.00 0.00 0.00 59 1015.1
20260505202525 64 221 3.5 9.6 0.00 0.00 0.00 59 1015.1
20260505202024 64 224 5.2 9.6 0.00 0.00 0.00 59 1015.0
20260505201539 64 217 5.2 7.8 0.00 0.00 0.00 59 1015.2
20260505201024 64 180 4.3 7.8 0.00 0.00 0.00 59 1015.2
20260505200527 63 302 2.6 7.0 0.00 0.00 0.00 60 1015.3
20260505200058 63 294 3.5 7.0 0.00 0.00 0.00 61 1015.3
20260505195526 63 300 2.6 7.8 0.00 0.00 0.00 59 1015.3
20260505195026 64 237 2.6 7.8 0.00 0.00 0.00 59 1015.1
20260505194545 63 246 2.6 7.8 0.00 0.00 0.00 60 1015.3
20260505194026 63 277 4.3 7.8 0.00 0.00 0.00 60 1015.3
20260505193526 62 266 3.5 9.6 0.00 0.00 0.00 61 1015.3
20260505193042 62 234 3.5 9.6 0.00 0.00 0.00 61 1015.3
20260505192528 62 228 5.2 9.6 0.00 0.00 0.00 61 1015.3
20260505192025 62 246 4.3 8.7 0.00 0.00 0.00 61 1015.2
20260505191538 63 242 5.2 9.6 0.00 0.00 0.00 61 1015.3
20260505191026 62 242 3.5 9.6 0.00 0.00 0.00 61 1015.2
20260505190526 62 224 3.5 9.6 0.00 0.00 0.00 61 1015.1
20260505190039 62 169 0.0 5.2 0.00 0.00 0.00 59 1015.2
20260505185528 63 211 2.6 7.0 0.00 0.00 0.00 58 1015.2
20260505185025 63 267 1.7 8.7 0.00 0.00 0.00 56 1015.1
20260505184538 63 319 2.6 8.7 0.00 0.00 0.00 57 1015.1
20260505184024 63 323 5.2 8.7 0.00 0.00 0.00 58 1015.3
20260505183525 62 31 1.7 7.8 0.00 0.00 0.00 57 1015.2
20260505183044 62 283 0.9 7.8 0.00 0.00 0.00 58 1015.2
20260505182524 62 0 2.6 7.8 0.00 0.00 0.00 58 1015.1
20260505182025 61 0 0.0 3.5 0.00 0.00 0.00 60 1015.3
20260505181541 62 183 0.0 3.5 0.00 0.00 0.00 59 1015.3
20260505181024 61 60 0.9 4.3 0.00 0.00 0.00 62 1015.3
20260505180525 61 151 0.0 5.2 0.00 0.00 0.00 60 1015.3
20260505175528 60 86 0.9 6.1 0.00 0.00 0.00 63 1015.2
20260505175029 61 80 2.6 6.1 0.00 0.00 0.00 62 1015.2
20260505174556 60 81 1.7 4.3 0.00 0.00 0.00 62 1015.2
20260505174026 59 262 0.9 4.3 0.00 0.00 0.00 63 1015.2
20260505173529 60 5 2.6 4.3 0.00 0.00 0.00 64 1015.2
20260505173044 59 37 0.9 4.3 0.00 0.00 0.00 65 1015.2
20260505172524 59 0 0.0 4.3 0.00 0.00 0.00 64 1015.2
20260505172024 59 299 1.7 4.3 0.00 0.00 0.00 64 1015.2
20260505171537 59 54 0.9 6.1 0.00 0.00 0.00 64 1015.3
20260505171028 58 26 2.6 6.1 0.00 0.00 0.00 64 1015.4
20260505170525 58 0 0.9 4.3 0.00 0.00 0.00 65 1015.4
20260505170043 58 44 0.9 7.0 0.00 0.00 0.00 67 1015.5
20260505165525 57 42 2.6 7.0 0.00 0.00 0.00 68 1015.6
20260505165027 57 35 1.7 4.3 0.00 0.00 0.00 69 1015.6
20260505164539 57 16 1.7 4.3 0.00 0.00 0.00 69 1015.5
20260505164024 56 298 0.0 2.6 0.00 0.00 0.00 70 1015.4
20260505163524 55 327 0.0 2.6 0.00 0.00 0.00 72 1015.3
20260505163039 55 0 0.0 2.6 0.00 0.00 0.00 72 1015.4
20260505162525 55 271 0.0 4.3 0.00 0.00 0.00 73 1015.4
20260505162025 55 0 1.7 5.2 0.00 0.00 0.00 73 1015.3
20260505161539 55 352 0.9 5.2 0.00 0.00 0.00 73 1015.3
20260505161028 55 337 1.7 4.3 0.00 0.00 0.00 73 1015.1
20260505160527 54 0 0.0 5.2 0.00 0.00 0.00 75 1015.2
20260505153043 52 0 0.0 2.6 0.00 0.00 0.00 81 1015.3
20260505152524 52 94 0.0 2.6 0.00 0.00 0.00 82 1015.2
20260505152024 51 0 0.0 1.7 0.00 0.00 0.00 82 1015.0
20260505151539 51 0 0.0 2.6 0.00 0.00 0.00 82 1014.9
20260505151025 51 0 0.0 2.6 0.00 0.00 0.00 83 1015.0
20260505150526 51 76 0.9 2.6 0.00 0.00 0.00 83 1014.9
20260505140524 49 0 0.0 0.0 0.00 0.00 0.00 87 1014.7
20260505125027 49 0 0.0 0.0 0.00 0.00 0.00 85 1014.1